• In Portugal
  • List of Countries
  • For 7 days
  • Water Temperature
  • Satellite Maps
  • Weather Map
  • Weather Widgets
  • user-avatar
    Login

    Hourly Weather Artemino

    Today, 19 July, Thursday

    Time Temperature Precipitation Wind Pressure Humidity
    00:00 +18°C° 0.1 mm 2 mps 743 mmHg 86%
    01:00 +18°C° 0.1 mm 3 mps 743 mmHg 88%
    02:00 +18°C° 0 mm 2 mps 742 mmHg 97%
    03:00 +18°C° 1.4 mm 3 mps 742 mmHg 97%
    04:00 +18°C° 1.4 mm 3 mps 742 mmHg 97%
    05:00 +18°C° 1.4 mm 4 mps 742 mmHg 97%
    06:00 +19°C° 0.6 mm 4 mps 742 mmHg 97%
    07:00 +19°C° 0.6 mm 4 mps 742 mmHg 96%
    08:00 +19°C° 0.6 mm 4 mps 742 mmHg 95%
    09:00 +20°C° 0.1 mm 4 mps 742 mmHg 90%
    10:00 +21°C° 0.1 mm 4 mps 742 mmHg 86%
    11:00 +22°C° 0.1 mm 4 mps 742 mmHg 82%
    12:00 +23°C° 0.5 mm 4 mps 742 mmHg 78%
    13:00 +25°C° 0.5 mm 4 mps 742 mmHg 74%
    14:00 +26°C° 0.5 mm 4 mps 742 mmHg 71%
    15:00 +26°C° 0.6 mm 3 mps 742 mmHg 74%
    16:00 +26°C° 0.6 mm 3 mps 742 mmHg 78%
    17:00 +25°C° 0.6 mm 3 mps 741 mmHg 82%
    18:00 +24°C° 0.3 mm 3 mps 741 mmHg 84%
    19:00 +22°C° 0.3 mm 3 mps 741 mmHg 87%
    20:00 +21°C° 0.3 mm 2 mps 741 mmHg 89%
    21:00 +20°C° 0.2 mm 2 mps 741 mmHg 92%
    22:00 +19°C° 0.2 mm 2 mps 741 mmHg 94%
    23:00 +19°C° 0.2 mm 2 mps 741 mmHg 96%

    Tomorrow, 20 July, Friday

    Time Temperature Precipitation Wind Pressure Humidity
    00:00 +18°C° 0 mm 2 mps 741 mmHg 97%
    01:00 +18°C° 0 mm 2 mps 741 mmHg 97%
    02:00 +18°C° 0 mm 2 mps 741 mmHg 98%
    03:00 +18°C° 0 mm 2 mps 741 mmHg 98%
    04:00 +18°C° 0 mm 2 mps 741 mmHg 98%
    05:00 +18°C° 0 mm 2 mps 741 mmHg 97%
    06:00 +19°C° 0 mm 2 mps 741 mmHg 95%
    07:00 +19°C° 0 mm 2 mps 741 mmHg 94%
    08:00 +20°C° 0 mm 2 mps 741 mmHg 92%
    09:00 +21°C° 0.1 mm 2 mps 741 mmHg 89%
    10:00 +21°C° 0.1 mm 2 mps 741 mmHg 86%
    11:00 +23°C° 0.1 mm 2 mps 741 mmHg 83%
    12:00 +24°C° 0.5 mm 2 mps 741 mmHg 81%
    13:00 +25°C° 0.5 mm 2 mps 741 mmHg 78%
    14:00 +26°C° 0.5 mm 2 mps 740 mmHg 75%
    15:00 +26°C° 0.7 mm 2 mps 740 mmHg 79%
    16:00 +25°C° 0.7 mm 2 mps 740 mmHg 82%
    17:00 +25°C° 0.7 mm 2 mps 740 mmHg 85%
    18:00 +24°C° 0.5 mm 2 mps 740 mmHg 89%
    19:00 +23°C° 0.5 mm 2 mps 740 mmHg 92%
    20:00 +22°C° 0.5 mm 1 mps 740 mmHg 95%
    21:00 +21°C° 0 mm 1 mps 740 mmHg 96%
    22:00 +21°C° 0 mm 1 mps 740 mmHg 97%
    23:00 +20°C° 0 mm 1 mps 740 mmHg 97%

    Day after tomorrow, 21 July, Saturday

    Time Temperature Precipitation Wind Pressure Humidity
    00:00 +20°C° 0 mm 1 mps 740 mmHg 98%
    01:00 +19°C° 0 mm 1 mps 740 mmHg 98%
    02:00 +19°C° 0 mm 1 mps 740 mmHg 98%
    03:00 +19°C° 0 mm 1 mps 740 mmHg 98%
    04:00 +19°C° 0 mm 1 mps 740 mmHg 98%
    05:00 +19°C° 0 mm 1 mps 740 mmHg 99%
    06:00 +20°C° 0 mm 1 mps 740 mmHg 96%
    07:00 +21°C° 0 mm 1 mps 740 mmHg 93%
    08:00 +23°C° 0 mm 1 mps 740 mmHg 90%
    09:00 +24°C° 0.1 mm 1 mps 740 mmHg 84%
    10:00 +25°C° 0.1 mm 1 mps 740 mmHg 78%
    11:00 +26°C° 0.1 mm 1 mps 740 mmHg 72%
    12:00 +27°C° 0.2 mm 1 mps 740 mmHg 68%
    13:00 +28°C° 0.2 mm 1 mps 740 mmHg 64%
    14:00 +29°C° 0.2 mm 1 mps 740 mmHg 60%
    15:00 +28°C° 0.8 mm 1 mps 739 mmHg 66%
    16:00 +28°C° 0.8 mm 1 mps 739 mmHg 72%
    17:00 +27°C° 0.8 mm 1 mps 739 mmHg 78%
    18:00 +26°C° 0.9 mm 1 mps 739 mmHg 83%
    19:00 +24°C° 0.9 mm 1 mps 740 mmHg 88%
    20:00 +23°C° 0.9 mm 1 mps 740 mmHg 92%
    21:00 +22°C° 0 mm 1 mps 740 mmHg 93%
    22:00 +22°C° 0 mm 1 mps 740 mmHg 95%
    23:00 +21°C° 0 mm 1 mps 740 mmHg 96%

    22 July, Sunday

    Time Temperature Precipitation Wind Pressure Humidity
    00:00 +21°C° 0 mm 1 mps 740 mmHg 96%
    01:00 +20°C° 0 mm 1 mps 740 mmHg 97%
    02:00 +19°C° 0 mm 2 mps 740 mmHg 97%
    03:00 +19°C° 0 mm 2 mps 740 mmHg 98%
    04:00 +19°C° 0 mm 2 mps 740 mmHg 98%
    05:00 +19°C° 0 mm 2 mps 740 mmHg 98%
    06:00 +20°C° 0.3 mm 2 mps 740 mmHg 96%
    07:00 +20°C° 0.3 mm 2 mps 740 mmHg 95%
    08:00 +21°C° 0.3 mm 2 mps 740 mmHg 94%
    09:00 +21°C° 0.2 mm 2 mps 740 mmHg 91%
    10:00 +22°C° 0.2 mm 3 mps 740 mmHg 89%
    11:00 +24°C° 0.2 mm 3 mps 740 mmHg 86%
    12:00 +24°C° 0.4 mm 3 mps 740 mmHg 84%
    13:00 +25°C° 0.4 mm 3 mps 740 mmHg 83%
    14:00 +25°C° 0.4 mm 3 mps 740 mmHg 81%
    15:00 +25°C° 0.7 mm 3 mps 740 mmHg 83%
    16:00 +25°C° 0.7 mm 2 mps 740 mmHg 84%
    17:00 +25°C° 0.7 mm 2 mps 740 mmHg 86%
    18:00 +24°C° 0.9 mm 2 mps 740 mmHg 88%
    19:00 +23°C° 0.9 mm 2 mps 740 mmHg 91%
    20:00 +21°C° 0.9 mm 2 mps 740 mmHg 94%
    21:00 +20°C° 0.1 mm 2 mps 740 mmHg 95%
    22:00 +20°C° 0.1 mm 2 mps 740 mmHg 96%
    23:00 +19°C° 0.1 mm 2 mps 740 mmHg 98%

    23 July, Monday

    Time Temperature Precipitation Wind Pressure Humidity
    00:00 +19°C° 0 mm 2 mps 740 mmHg 98%
    01:00 +19°C° 0 mm 3 mps 740 mmHg 98%
    02:00 +19°C° 0 mm 3 mps 740 mmHg 98%
    03:00 +18°C° 0 mm 3 mps 740 mmHg 97%
    04:00 +18°C° 0 mm 3 mps 740 mmHg 96%
    05:00 +18°C° 0 mm 3 mps 740 mmHg 96%
    06:00 +18°C° 0.1 mm 3 mps 740 mmHg 91%
    07:00 +19°C° 0.1 mm 3 mps 741 mmHg 87%
    08:00 +20°C° 0.1 mm 3 mps 741 mmHg 82%
    09:00 +21°C° 0.2 mm 3 mps 741 mmHg 79%
    10:00 +22°C° 0.2 mm 3 mps 741 mmHg 77%
    11:00 +24°C° 0.2 mm 3 mps 741 mmHg 74%
    12:00 +25°C° 0 mm 3 mps 741 mmHg 70%
    13:00 +26°C° 0 mm 3 mps 741 mmHg 67%
    14:00 +27°C° 0 mm 3 mps 741 mmHg 63%
    15:00 +26°C° 0.4 mm 3 mps 741 mmHg 66%
    16:00 +26°C° 0.4 mm 3 mps 741 mmHg 69%
    17:00 +26°C° 0.4 mm 3 mps 741 mmHg 72%
    18:00 +25°C° 0.4 mm 2 mps 741 mmHg 77%
    19:00 +23°C° 0.4 mm 2 mps 741 mmHg 82%
    20:00 +21°C° 0.4 mm 2 mps 741 mmHg 87%
    21:00 +21°C° 0 mm 2 mps 741 mmHg 89%
    22:00 +20°C° 0 mm 2 mps 741 mmHg 90%
    23:00 +19°C° 0 mm 2 mps 742 mmHg 92%

    24 July, Tuesday

    Time Temperature Precipitation Wind Pressure Humidity
    00:00 +19°C° 0.2 mm 2 mps 742 mmHg 93%
    01:00 +19°C° 0.2 mm 2 mps 742 mmHg 94%
    02:00 +19°C° 0.2 mm 2 mps 742 mmHg 96%
    03:00 +19°C° 0.6 mm 2 mps 742 mmHg 96%
    04:00 +19°C° 0.6 mm 2 mps 742 mmHg 96%
    05:00 +19°C° 0.6 mm 2 mps 742 mmHg 95%
    06:00 +19°C° 0.6 mm 2 mps 742 mmHg 94%
    07:00 +20°C° 0.6 mm 2 mps 742 mmHg 93%
    08:00 +21°C° 0.6 mm 2 mps 742 mmHg 92%
    09:00 +21°C° 0.4 mm 2 mps 743 mmHg 91%
    10:00 +23°C° 0.4 mm 2 mps 743 mmHg 89%
    11:00 +24°C° 0.4 mm 2 mps 743 mmHg 87%
    12:00 +25°C° 0.5 mm 2 mps 743 mmHg 83%
    13:00 +26°C° 0.5 mm 2 mps 743 mmHg 79%
    14:00 +27°C° 0.5 mm 2 mps 743 mmHg 75%
    15:00 +26°C° 1 mm 2 mps 743 mmHg 79%
    16:00 +26°C° 1 mm 2 mps 743 mmHg 83%
    17:00 +25°C° 1 mm 1 mps 743 mmHg 87%
    18:00 +24°C° 0.6 mm 1 mps 743 mmHg 90%
    19:00 +24°C° 0.6 mm 1 mps 743 mmHg 92%
    20:00 +23°C° 0.6 mm 1 mps 743 mmHg 94%
    21:00 +22°C° 0.1 mm 1 mps 743 mmHg 95%
    22:00 +22°C° 0.1 mm 1 mps 743 mmHg 96%
    23:00 +21°C° 0.1 mm 1 mps 743 mmHg 97%
    Show more